Date String (YYYY-MM-DD hh:mm:ss) UTC,Instrument flags,Ambient pressure (hPa),Sample flow (lpm),Bypass flow (lpm),Sample temperature (°C),Ambient temperature (°C),ASC tube jacket temperature (°C),LED temperature (°C),Box temperature (°C),Sample RH (%),Span deviation,Mass concentration (μg/m³),Mass concentration (μg/m³),Mass concentration (μg/m³)
DateTimeUTC,F1_M11,P_M11,Q1_M11,Q2_M11,T1_M11,T2_M11,T3_M11,T4_M11,T5_M11,U1_M11,ZSPAN_M11,X0_M11,X2_M11,X1_M11
2021-12-03 07:00:00,,0825.9,5.00,0.00,30.1,29.1,00.0,39.1,31.7,07.9,0000.0,0000.32,0000.25,0000.21
2021-12-03 07:01:00,,0826.0,5.00,0.00,30.1,29.1,00.0,39.1,31.7,07.8,0000.0,0000.35,0000.28,0000.23
2021-12-03 07:02:00,,0825.9,4.99,0.00,30.1,29.1,00.0,39.1,31.7,07.8,0000.0,0000.37,0000.30,0000.25
2021-12-03 07:03:00,,0825.9,5.00,0.00,30.0,29.1,00.0,39.1,31.7,07.8,0000.0,0000.38,0000.31,0000.27
2021-12-03 07:04:00,,0826.0,5.01,0.00,30.0,29.1,00.0,39.1,31.7,07.7,0000.0,0000.38,0000.32,0000.28
2021-12-03 07:05:00,,0825.9,4.99,0.00,30.0,29.1,00.0,39.1,31.7,07.7,0000.0,0000.42,0000.33,0000.29
2021-12-03 07:06:00,,0825.9,4.99,0.00,30.1,29.1,00.0,39.1,31.7,07.7,0000.0,0000.46,0000.35,0000.30
2021-12-03 07:07:00,,0825.8,5.00,0.00,30.1,29.1,00.0,39.1,31.7,07.7,0000.0,0000.47,0000.36,0000.31
2021-12-03 07:08:00,,0825.9,5.00,0.00,30.1,29.1,00.0,39.1,31.7,07.8,0000.0,0000.46,0000.37,0000.32
2021-12-03 07:09:00,,0825.9,4.99,0.00,30.1,29.1,00.0,39.1,31.7,07.8,0000.0,0000.49,0000.39,0000.32
2021-12-03 07:10:00,,0825.9,5.00,0.00,30.1,29.1,00.0,39.1,31.7,07.8,0000.0,0000.48,0000.39,0000.32
2021-12-03 07:11:00,,0825.9,5.00,0.00,30.1,29.1,00.0,39.1,31.7,07.8,0000.0,0000.48,0000.39,0000.33
2021-12-03 07:12:00,,0825.9,4.98,0.00,30.1,29.1,00.0,39.1,31.7,07.8,0000.0,0000.45,0000.36,0000.32
2021-12-03 07:13:00,,0825.9,5.02,0.00,30.1,29.1,00.0,39.1,31.7,07.8,0000.0,0000.48,0000.37,0000.31
2021-12-03 07:14:00,,0825.9,5.00,0.00,30.1,29.1,00.0,39.1,31.7,07.8,0000.0,0000.50,0000.37,0000.31
2021-12-03 07:15:00,,0825.8,4.99,0.00,30.1,29.2,00.0,39.1,31.8,07.8,0000.0,0000.50,0000.39,0000.33
2021-12-03 07:16:00,,0825.8,5.00,0.00,30.1,29.1,00.0,39.1,31.7,07.8,0000.0,0000.49,0000.40,0000.35
2021-12-03 07:17:00,,0825.8,5.00,0.00,30.1,29.1,00.0,39.1,31.8,07.8,0000.0,0000.50,0000.42,0000.37
2021-12-03 07:18:00,,0826.0,5.00,0.00,30.1,29.1,00.0,39.1,31.8,07.8,0000.0,0000.57,0000.46,0000.40
2021-12-03 07:19:00,,0825.8,5.00,0.00,30.1,29.1,00.0,39.1,31.8,07.8,0000.0,0000.60,0000.48,0000.42
2021-12-03 07:20:00,,0825.8,5.02,0.00,30.1,29.1,00.0,39.1,31.7,07.8,0000.0,0000.62,0000.49,0000.43
2021-12-03 07:21:00,,0826.0,5.01,0.00,30.1,29.1,00.0,39.1,31.8,07.8,0000.0,0000.64,0000.51,0000.45
2021-12-03 07:22:00,,0825.8,5.00,0.00,30.1,29.1,00.0,39.1,31.8,07.8,0000.0,0000.66,0000.53,0000.46
2021-12-03 07:23:00,,0825.7,5.01,0.00,30.1,29.1,00.0,39.1,31.7,07.8,0000.0,0000.69,0000.55,0000.49
2021-12-03 07:24:00,,0825.7,5.00,0.00,30.1,29.1,00.0,39.1,31.7,07.8,0000.0,0000.68,0000.56,0000.51
2021-12-03 07:25:00,,0825.7,4.98,0.00,30.1,29.1,00.0,39.1,31.7,07.7,0000.0,0000.67,0000.56,0000.51
2021-12-03 07:26:00,,0825.7,4.99,0.00,30.1,29.1,00.0,39.1,31.8,07.7,0000.0,0000.66,0000.56,0000.51
2021-12-03 07:27:00,,0825.7,5.02,0.00,30.1,29.1,00.0,39.1,31.8,07.8,0000.0,0000.67,0000.55,0000.50
2021-12-03 07:28:00,,0825.7,4.99,0.00,30.1,29.1,00.0,39.1,31.8,07.8,0000.0,0000.66,0000.55,0000.49
2021-12-03 07:29:00,,0825.7,5.00,0.00,30.1,29.1,00.0,39.1,31.7,07.8,0000.0,0000.62,0000.53,0000.49
2021-12-03 07:30:00,,0825.7,5.00,0.00,30.1,29.1,00.0,39.1,31.8,07.8,0000.0,0000.62,0000.54,0000.50
2021-12-03 07:31:00,,0825.7,4.99,0.00,30.1,29.1,00.0,39.1,31.7,07.8,0000.0,0000.60,0000.55,0000.52
2021-12-03 07:32:00,,0825.6,5.01,0.00,30.1,29.1,00.0,39.1,31.7,07.8,0000.0,0000.62,0000.57,0000.54
2021-12-03 07:33:00,,0825.6,4.99,0.00,30.1,29.1,00.0,39.1,31.7,07.8,0000.0,0000.64,0000.59,0000.56
2021-12-03 07:34:00,,0825.6,5.02,0.00,30.1,29.1,00.0,39.1,31.8,07.8,0000.0,0001.06,0000.61,0000.57
2021-12-03 07:35:00,,0825.6,5.00,0.00,30.1,29.1,00.0,39.1,31.8,07.8,0000.0,0001.30,0000.64,0000.59
2021-12-03 07:36:00,,0825.6,5.00,0.00,30.1,29.1,00.0,39.1,31.7,07.8,0000.0,0001.33,0000.66,0000.61
2021-12-03 07:37:00,,0825.6,4.98,0.00,30.1,29.1,00.0,39.1,31.7,07.8,0000.0,0001.35,0000.68,0000.63
2021-12-03 07:38:00,,0825.6,5.00,0.00,30.1,29.2,00.0,39.1,31.8,07.8,0000.0,0001.40,0000.71,0000.66
2021-12-03 07:39:00,,0825.6,5.01,0.00,30.1,29.1,00.0,39.1,31.7,07.8,0000.0,0001.41,0000.73,0000.67
2021-12-03 07:40:00,,0825.6,5.00,0.00,30.1,29.1,00.0,39.1,31.7,07.8,0000.0,0001.42,0000.74,0000.67
2021-12-03 07:41:00,,0825.6,5.01,0.00,30.1,29.1,00.0,39.1,31.7,07.8,0000.0,0001.42,0000.74,0000.66
2021-12-03 07:42:00,,0825.6,5.00,0.00,30.1,29.1,00.0,39.1,31.7,07.8,0000.0,0001.45,0000.74,0000.65
2021-12-03 07:43:00,,0825.6,5.00,0.00,30.1,29.1,00.0,39.1,31.7,07.8,0000.0,0001.44,0000.73,0000.64
2021-12-03 07:44:00,,0825.6,5.01,0.00,30.1,29.1,00.0,39.1,31.7,07.8,0000.0,0001.45,0000.73,0000.63
2021-12-03 07:45:00,,0825.5,4.99,0.00,30.1,29.1,00.0,39.1,31.7,07.8,0000.0,0001.18,0000.73,0000.63
2021-12-03 07:46:00,,0825.5,5.02,0.00,30.1,29.1,00.0,39.1,31.7,07.8,0000.0,0000.83,0000.73,0000.64
2021-12-03 07:47:00,,0825.5,4.99,0.00,30.0,29.1,00.0,39.1,31.7,07.8,0000.0,0002.00,0000.72,0000.63
2021-12-03 07:48:00,,0825.5,5.02,0.00,30.0,29.1,00.0,39.1,31.7,07.8,0000.0,0002.07,0000.71,0000.60
2021-12-03 07:49:00,,0825.5,5.00,0.00,30.0,29.1,00.0,39.1,31.6,07.8,0000.0,0002.13,0000.70,0000.60
2021-12-03 07:50:00,,0825.5,4.98,0.00,30.0,29.0,00.0,39.1,31.7,07.8,0000.0,0002.10,0000.68,0000.60
2021-12-03 07:51:00,,0825.4,5.01,0.00,30.0,29.0,00.0,39.1,31.7,07.7,0000.0,0002.10,0000.69,0000.62
2021-12-03 07:52:00,,0825.5,4.99,0.00,30.0,29.1,00.0,39.1,31.7,07.7,0000.0,0002.13,0000.70,0000.63
2021-12-03 07:53:00,,0825.4,5.00,0.00,30.0,29.1,00.0,39.1,31.7,07.7,0000.0,0002.11,0000.70,0000.64
2021-12-03 07:54:00,,0825.5,5.00,0.00,30.0,29.1,00.0,39.1,31.7,07.7,0000.0,0002.12,0000.71,0000.64
2021-12-03 07:55:00,,0825.4,5.02,0.00,30.1,29.1,00.0,39.1,31.7,07.7,0000.0,0002.11,0000.70,0000.65
2021-12-03 07:56:00,,0825.4,5.01,0.00,30.0,29.1,00.0,39.1,31.7,07.7,0000.0,0002.09,0000.69,0000.64
2021-12-03 07:57:00,,0825.4,5.00,0.00,30.0,29.1,00.0,39.1,31.7,07.7,0000.0,0002.12,0000.70,0000.64
2021-12-03 07:58:00,,0825.4,4.99,0.00,30.0,29.1,00.0,39.1,31.7,07.7,0000.0,0001.00,0000.72,0000.65
2021-12-03 07:59:00,,0825.4,5.00,0.00,30.0,29.1,00.0,39.1,31.7,07.7,0000.0,0000.88,0000.72,0000.66
